Waarnemingen

Advertentie
Mijn weer
Exeter Airport No. 2, Groot Brittannië (3844): temperatuur & dauwpunt: 22.05.2018 06:00:00 - 28.05.2018 06:00:00 (BST)Exeter Airport No. 2, Groot Brittannië (3844): windsnelheid & windstoten: 22.05.2018 06:00:00 - 28.05.2018 06:00:00 (BST)Exeter Airport No. 2, Groot Brittannië (3844): windrichting: 22.05.2018 06:00:00 - 28.05.2018 06:00:00 (BST)Exeter Airport No. 2, Groot Brittannië (3844): luchtdruk: 22.05.2018 06:00:00 - 28.05.2018 06:00:00 (BST)Exeter Airport No. 2, Groot Brittannië (3844): zicht: 22.05.2018 06:00:00 - 28.05.2018 06:00:00 (BST)Exeter Airport No. 2, Groot Brittannië (3844): Zonneschijnduur: 22.05.2018 06:00:00 - 28.05.2018 06:00:00 (BST)Exeter Airport No. 2, Groot Brittannië (3844): neerslag: 22.05.2018 06:00:00 - 28.05.2018 06:00:00 (BST)
Datum & Tijd tt [°C] td [°C] ff [km/u] ff [kn] fx [km/u] fx [kn] dd ppp [hPa] vv [km] sd [min] rr [mm]
28.05.2018 06:00:00 11,8 11,8 4 2 - - N 1017,8 0,1 0 0,0
28.05.2018 05:00:00 12,6 12,6 5 3 - - N 1017,7 0,1 0 0,2
28.05.2018 04:00:00 13,2 13,2 4 2 - - NNO 1017,4 0,1 0 0,0
28.05.2018 03:00:00 13,2 13,2 4 2 - - N 1017,3 - 0 0,0
28.05.2018 02:00:00 12,9 12,8 9 5 - - N 1017,2 1,0 0 0,0
28.05.2018 01:00:00 11,7 11,5 2 1 - - NO 1017,1 1,5 - 0,0
28.05.2018 00:00:00 11,7 11,2 2 1 - - NNW 1017,1 0,5 0 0,0
27.05.2018 23:00:00 13,1 12,6 4 2 - - ZO 1017,1 3,1 0 0,0
27.05.2018 22:00:00 14,8 13,8 4 2 - - Z 1016,6 4,0 0 0,0
27.05.2018 21:00:00 17,0 14,2 2 1 - - Z 1016,2 11 54 0,0
27.05.2018 20:00:00 17,5 14,7 4 2 - - Z 1015,4 14 60 0,0
27.05.2018 19:00:00 18,2 15,0 13 7 - - ZZO 1015,1 14 60 0,0
27.05.2018 18:00:00 19,4 14,8 9 5 - - Z 1015,0 18 54 0,0
27.05.2018 17:00:00 19,0 15,3 8 4 - - ZO 1015,4 18 54 0,0
27.05.2018 16:00:00 19,0 15,8 13 7 - - ZO 1015,6 14 30 0,0
27.05.2018 15:00:00 17,8 15,4 15 8 - - ZO 1015,5 9 6 0,0
27.05.2018 14:00:00 18,1 15,9 15 8 - - ZZO 1015,4 9 6 0,0
27.05.2018 13:00:00 16,9 15,3 15 8 - - ZO 1015,5 8 0 0,0
27.05.2018 12:00:00 16,8 15,0 15 8 - - ZO 1015,3 8 6 0,0
27.05.2018 11:00:00 18,1 15,8 16 9 - - ZO 1014,6 14 30 0,0
27.05.2018 10:00:00 18,1 15,2 13 7 - - OZO 1014,3 19 48 0,0
27.05.2018 09:00:00 16,4 15,5 11 6 - - ZO 1014,5 12 6 0,2
27.05.2018 08:00:00 15,2 14,5 15 8 - - ZO 1014,2 5 0 0,4
27.05.2018 07:00:00 15,1 13,9 4 2 - - O 1013,9 11 0 0,4
27.05.2018 06:00:00 14,8 12,9 5 3 - - N 1013,6 19 0 0,0
27.05.2018 05:00:00 15,2 12,8 13 7 - - OZO 1013,3 23 0 0,0
27.05.2018 04:00:00 16,1 13,1 24 13 - - O 1012,9 24 0 0,0
27.05.2018 03:00:00 17,1 13,7 22 12 - - O 1012,7 24 0 0,0
27.05.2018 02:00:00 17,6 16,0 8 4 - - ONO 1012,8 6 0 0,0
27.05.2018 01:00:00 18,3 16,5 13 7 52 28 NO 1012,7 8 - 1,4
27.05.2018 00:00:00 19,5 16,4 15 8 - - ONO 1013,4 13 0 0,0
26.05.2018 23:00:00 19,6 16,3 16 9 - - ONO 1013,6 17 0 0,0
26.05.2018 22:00:00 20,2 16,9 16 9 - - ONO 1013,5 18 0 0,0
26.05.2018 21:00:00 19,8 18,8 9 5 - - ONO 1013,2 8 0 5,4
26.05.2018 20:00:00 21,6 18,8 16 9 - - NO 1013,4 2,4 0 0,8
26.05.2018 19:00:00 21,7 18,3 13 7 - - NO 1013,3 7 24 0,2
26.05.2018 18:00:00 22,6 17,8 16 9 - - NO 1013,8 8 24 0,0
26.05.2018 17:00:00 20,9 17,2 13 7 - - NNO 1014,5 7 0 0,4
26.05.2018 16:00:00 20,4 16,3 11 6 - - NNO 1015,4 7 12 0,0
26.05.2018 15:00:00 19,6 15,8 16 9 - - NNO 1016,1 6 30 0,0
26.05.2018 14:00:00 20,0 14,7 18 10 - - ONO 1016,7 10 48 0,0
26.05.2018 13:00:00 17,3 14,9 11 6 - - NNO 1017,9 7 0 0,0
26.05.2018 12:00:00 15,5 14,2 13 7 - - NNO 1018,3 4,9 0 0,6
26.05.2018 11:00:00 15,6 13,8 11 6 - - NO 1018,7 4,6 0 0,0
26.05.2018 10:00:00 15,5 13,3 11 6 - - NNO 1018,6 5 0 0,0
26.05.2018 09:00:00 15,3 13,3 9 5 - - NNO 1018,5 4,0 0 0,0
26.05.2018 08:00:00 15,2 13,4 8 4 - - NNO 1018,8 4,3 12 0,0
26.05.2018 07:00:00 13,5 13,1 4 2 - - N 1019,0 4,2 0 0,0
26.05.2018 06:00:00 12,0 11,5 4 2 - - NNO 1018,6 2,9 0 0,0
26.05.2018 05:00:00 11,0 10,5 4 2 - - NO 1018,7 2,3 0 0,0
26.05.2018 04:00:00 11,2 10,6 5 3 - - NO 1018,8 2,5 0 0,0
26.05.2018 03:00:00 12,6 11,9 5 3 - - NO 1018,8 3,2 0 0,0
26.05.2018 02:00:00 12,7 11,9 5 3 - - NO 1019,0 4,0 0 0,0
26.05.2018 01:00:00 12,7 11,7 9 5 - - NNO 1019,1 4,7 - 0,0
26.05.2018 00:00:00 12,3 11,6 8 4 - - NO 1018,9 3,8 0 0,0
25.05.2018 23:00:00 12,7 11,7 4 2 - - NO 1018,8 5 0 0,0
25.05.2018 22:00:00 13,8 12,1 4 2 - - NO 1018,6 10 0 0,0
25.05.2018 21:00:00 15,2 12,5 5 3 - - NO 1018,0 11 0 0,0
25.05.2018 20:00:00 16,7 12,9 8 4 - - NNO 1017,8 13 18 0,0
25.05.2018 19:00:00 17,2 13,1 9 5 - - NNO 1017,5 14 18 0,0
25.05.2018 18:00:00 18,2 13,4 11 6 - - NNO 1017,3 19 24 0,0
25.05.2018 17:00:00 19,2 13,6 9 5 - - NNO 1017,5 19 12 0,0
25.05.2018 16:00:00 18,7 13,2 9 5 - - NNO 1017,8 19 42 0,0
25.05.2018 15:00:00 19,0 12,4 11 6 - - NNO 1017,8 22 18 0,0
25.05.2018 14:00:00 19,8 12,8 9 5 - - NO 1017,9 18 48 0,0
25.05.2018 13:00:00 19,0 13,2 11 6 - - N 1018,1 19 42 0,0
25.05.2018 12:00:00 18,1 13,4 9 5 - - NNO 1018,3 13 6 0,0
25.05.2018 11:00:00 17,1 13,1 9 5 - - N 1018,5 9 0 0,0
25.05.2018 10:00:00 15,8 12,4 11 6 - - NO 1018,5 10 0 0,0
25.05.2018 09:00:00 14,8 12,9 5 3 - - N 1018,5 5 0 0,0
25.05.2018 08:00:00 13,9 13,3 5 3 - - NW 1018,4 4,4 0 0,2
25.05.2018 07:00:00 13,1 12,7 4 2 - - NNW 1018,2 3,9 0 0,0
25.05.2018 06:00:00 12,7 12,3 8 4 - - NNW 1018,1 3,1 0 0,0
25.05.2018 05:00:00 12,6 12,1 4 2 - - NW 1018,2 3,5 0 0,0
25.05.2018 04:00:00 12,8 12,2 5 3 - - NW 1018,3 3,8 0 0,0
25.05.2018 03:00:00 12,6 12,2 4 2 - - NW 1018,2 3,6 0 0,0
25.05.2018 02:00:00 12,8 12,0 2 1 - - NW 1018,7 3,3 0 0,0
25.05.2018 01:00:00 12,9 12,0 5 3 - - NW 1018,8 3,5 - 0,0
25.05.2018 00:00:00 12,5 11,7 5 3 - - NNW 1019,0 3,3 0 0,0
24.05.2018 23:00:00 12,9 11,9 5 3 - - N 1019,1 4,7 0 0,0
24.05.2018 22:00:00 12,9 11,9 8 4 - - N 1019,4 4,6 0 0,0
24.05.2018 21:00:00 13,5 12,1 8 4 - - NNO 1019,2 4,7 0 0,0
24.05.2018 20:00:00 13,7 12,1 9 5 - - N 1019,0 5 0 0,0
24.05.2018 19:00:00 14,4 12,3 8 4 - - NO 1018,9 7 0 0,0
24.05.2018 18:00:00 14,5 12,2 11 6 - - N 1019,1 8 0 0,0
24.05.2018 17:00:00 15,0 12,2 13 7 - - NNO 1018,9 10 0 0,0
24.05.2018 16:00:00 15,4 12,3 8 4 - - NO 1019,1 9 0 0,0
24.05.2018 15:00:00 15,5 12,0 11 6 - - NO 1019,4 9 0 0,0
24.05.2018 14:00:00 15,9 12,1 11 6 - - NO 1019,7 10 0 0,0
24.05.2018 13:00:00 15,7 11,7 8 4 - - ONO 1019,9 10 0 0,0
24.05.2018 12:00:00 14,9 11,5 9 5 - - NO 1020,1 10 0 0,0
24.05.2018 11:00:00 13,7 10,8 13 7 - - NO 1020,5 10 0 0,0
24.05.2018 10:00:00 13,5 10,4 9 5 - - NO 1020,5 10 0 0,0
24.05.2018 09:00:00 13,4 10,4 13 7 - - NO 1020,6 11 0 0,0
24.05.2018 08:00:00 12,4 9,7 13 7 - - NO 1020,8 11 36 0,0
24.05.2018 07:00:00 12,1 9,5 11 6 - - NO 1020,6 12 18 0,0
24.05.2018 06:00:00 10,5 8,9 2 1 - - ONO 1020,6 11 0 0,0
24.05.2018 05:00:00 11,6 9,2 4 2 - - NNO 1020,5 13 0 0,0
24.05.2018 04:00:00 13,0 9,4 11 6 - - NO 1020,9 16 0 0,0
24.05.2018 03:00:00 14,1 9,7 11 6 - - NO 1021,0 20 0 0,0
24.05.2018 02:00:00 14,5 11,3 9 5 - - ONO 1021,1 16 0 0,0
24.05.2018 01:00:00 15,0 11,5 15 8 - - ONO 1021,3 14 - 0,0
24.05.2018 00:00:00 16,5 11,1 15 8 - - ONO 1021,5 18 0 0,0
23.05.2018 23:00:00 16,1 11,0 8 4 - - NO 1021,5 13 0 0,0
23.05.2018 22:00:00 15,3 10,3 5 3 - - NO 1021,6 12 0 0,0
23.05.2018 21:00:00 17,0 10,3 9 5 - - NO 1021,3 15 36 0,0
23.05.2018 20:00:00 19,8 11,7 11 6 - - NNO 1021,2 18 60 0,0
23.05.2018 19:00:00 21,1 11,4 9 5 - - NO 1020,9 22 54 0,0
23.05.2018 18:00:00 21,4 11,6 13 7 - - NNO 1021,1 19 60 0,0
23.05.2018 17:00:00 22,6 10,3 11 6 - - ONO 1021,3 24 42 0,0
23.05.2018 16:00:00 22,4 11,6 13 7 - - ONO 1021,6 23 60 0,0
23.05.2018 15:00:00 21,6 11,1 9 5 - - NO 1022,0 21 60 0,0
23.05.2018 14:00:00 20,8 11,5 9 5 - - NNO 1022,3 16 54 0,0
23.05.2018 13:00:00 19,5 10,9 9 5 - - NNO 1022,7 19 60 0,0
23.05.2018 12:00:00 18,4 10,4 8 4 - - NNO 1023,0 16 60 0,0
23.05.2018 11:00:00 16,8 11,4 11 6 - - NNO 1023,1 13 60 0,0
23.05.2018 10:00:00 14,8 10,7 11 6 - - NNO 1023,0 12 60 0,0
23.05.2018 09:00:00 13,3 10,1 13 7 - - NNO 1023,0 11 60 0,0
23.05.2018 08:00:00 13,1 10,4 9 5 - - NNO 1022,8 12 60 0,0
23.05.2018 07:00:00 12,0 9,9 8 4 - - NNO 1022,3 11 48 0,0
23.05.2018 06:00:00 10,5 9,6 8 4 - - N 1021,8 10 0 0,0
23.05.2018 05:00:00 9,6 8,1 2 1 - - NO 1021,4 13 0 0,0
23.05.2018 04:00:00 11,4 9,2 9 5 - - N 1021,3 15 0 0,0
23.05.2018 03:00:00 9,2 7,4 2 1 - - NNO 1021,3 10 0 0,0
23.05.2018 02:00:00 8,9 7,4 5 3 - - NNW 1021,2 10 0 0,0
23.05.2018 01:00:00 11,8 10,1 2 1 - - O 1021,2 14 - 0,0
23.05.2018 00:00:00 14,1 10,1 11 6 - - N 1020,7 16 0 0,0
22.05.2018 23:00:00 13,6 10,3 4 2 - - NO 1020,2 16 0 0,0
22.05.2018 22:00:00 16,3 10,2 9 5 - - N 1019,6 20 0 0,0
22.05.2018 21:00:00 17,1 10,3 5 3 - - NNO 1018,8 21 30 0,0
22.05.2018 20:00:00 19,5 10,3 13 7 - - N 1018,3 26 60 0,0
22.05.2018 19:00:00 20,5 10,1 15 8 - - N 1018,0 24 60 0,0
22.05.2018 18:00:00 21,0 9,4 13 7 - - N 1017,8 18 60 0,0
22.05.2018 17:00:00 21,3 7,8 15 8 - - N 1017,6 20 60 0,0
22.05.2018 16:00:00 21,9 7,7 15 8 - - N 1017,7 26 60 0,0
22.05.2018 15:00:00 21,7 8,1 13 7 - - NNO 1017,7 28 60 0,0
22.05.2018 14:00:00 20,1 11,0 11 6 - - N 1017,8 24 42 0,0
22.05.2018 13:00:00 18,7 11,7 13 7 - - NNO 1017,9 22 0 0,0
22.05.2018 12:00:00 16,8 10,7 16 9 - - N 1017,7 22 24 0,0
22.05.2018 11:00:00 19,0 12,2 11 6 - - NNO 1017,2 24 60 0,0
22.05.2018 10:00:00 17,3 11,4 13 7 - - NNO 1017,1 25 42 0,0
22.05.2018 09:00:00 14,4 11,0 11 6 - - NW 1017,1 19 0 0,0
22.05.2018 08:00:00 14,5 10,5 11 6 - - N 1016,7 23 0 0,0
22.05.2018 07:00:00 12,8 9,7 5 3 - - N 1016,3 20 0 0,0
22.05.2018 06:00:00 11,9 9,1 8 4 - - NNW 1016,1 20 0 0,0

tt = temperatuur
td = dauwpunt
ff = windsnelheid
fx = windstoten
dd = windrichting
ppp = luchtdruk
vv = zicht
sd = Zonneschijnduur
rr = neerslag

Weerstations in de omgeving